Location: Earls Croome
(52.0667°N, 2.2000°W)
Time: 12:54:25
(UTC+00:00)

COSMOS 2455 - Pass Details

Date: 21 February 2020
Orbit: 901 x 908 km, 67.2° (Epoch: 04 April)

Event Time Altitude Azimuth Distance (km) Brightness Sun altitude
Exits shadow 03:22:04 18° 347° (NNW) 2,083 4.9 -35.1°
Maximum altitude 03:23:28 19° 5° (N) 2,011 4.9 -34.9°
Drops below altitude 10° 03:27:42 10° 50° (NE) 2,601 6.0 -34.4°
Sets 03:31:01 0° 68° (ENE) 3,542 7.0 -33.9°
